TimePST,TemperatureF,Dew PointF,Humidity,Sea Level PressureIn,VisibilityMPH,Wind Direction,Wind SpeedMPH,Gust SpeedMPH,PrecipitationIn,Events,Conditions,WindDirDegrees,DateUTC
12:53 AM,19.0,16.0,88,30.75,10.0,Calm,Calm,-,N/A,,Clear,0,2013-01-16 08:53:00
1:53 AM,19.9,16.0,85,30.75,10.0,Calm,Calm,-,N/A,,Clear,0,2013-01-16 09:53:00
2:53 AM,19.0,16.0,88,30.76,10.0,Calm,Calm,-,N/A,,Clear,0,2013-01-16 10:53:00
3:53 AM,18.0,14.0,84,30.75,10.0,NNE,4.6,-,N/A,,Clear,20,2013-01-16 11:53:00
4:53 AM,17.1,15.1,92,30.73,10.0,Calm,Calm,-,N/A,,Clear,0,2013-01-16 12:53:00
5:53 AM,16.0,12.9,88,30.73,10.0,NNE,3.5,-,N/A,,Clear,30,2013-01-16 13:53:00
6:53 AM,15.1,10.9,84,30.74,10.0,Calm,Calm,-,N/A,,Clear,0,2013-01-16 14:53:00
8:53 AM,19.9,17.1,89,30.77,8.0,Calm,Calm,-,N/A,,Clear,0,2013-01-16 16:53:00
9:53 AM,25.0,21.9,88,30.77,10.0,Calm,Calm,-,N/A,,Clear,0,2013-01-16 17:53:00
11:53 AM,33.1,24.1,70,30.71,10.0,WSW,4.6,-,N/A,,Clear,240,2013-01-16 19:53:00
12:53 PM,36.0,26.1,67,30.67,10.0,Calm,Calm,-,N/A,,Clear,0,2013-01-16 20:53:00
1:53 PM,37.9,25.0,60,30.63,10.0,Calm,Calm,-,N/A,,Clear,0,2013-01-16 21:53:00
2:53 PM,39.9,24.1,53,30.62,10.0,Calm,Calm,-,N/A,,Clear,0,2013-01-16 22:53:00
3:53 PM,41.0,25.0,53,30.61,10.0,South,3.5,-,N/A,,Clear,190,2013-01-16 23:53:00
4:53 PM,37.9,25.0,60,30.62,10.0,Calm,Calm,-,N/A,,Clear,0,2013-01-17 00:53:00
5:53 PM,32.0,26.1,79,30.63,10.0,East,3.5,-,N/A,,Clear,90,2013-01-17 01:53:00
6:53 PM,28.0,24.1,85,30.65,10.0,Calm,Calm,-,N/A,,Clear,0,2013-01-17 02:53:00
7:53 PM,27.0,21.9,81,30.65,10.0,Calm,Calm,-,N/A,,Clear,0,2013-01-17 03:53:00
8:53 PM,24.1,19.9,84,30.64,10.0,Calm,Calm,-,N/A,,Clear,0,2013-01-17 04:53:00
9:53 PM,26.1,21.9,84,30.63,10.0,Calm,Calm,-,N/A,,Clear,0,2013-01-17 05:53:00
10:53 PM,24.1,21.0,88,30.62,10.0,Calm,Calm,-,N/A,,Clear,0,2013-01-17 06:53:00
11:53 PM,24.1,19.9,84,30.61,10.0,Calm,Calm,-,N/A,,Clear,0,2013-01-17 07:53:00